Moosic, PA

9:12 PM EDT on September 25, 2016 (GMT -0400)
Wilkes-Barre-Scranton International

Weather History for KAVP - January, 2014

Change the Weather History Date:

Sunday, January 19, 2014

  Actual Average Record
Temperature  
Mean Temperature 23 °F 26 °F  
Max Temperature 31 °F 33 °F 62 °F (1996)
Min Temperature 15 °F 18 °F -15 °F (1904)
Degree Days  
Heating Degree Days 42 39  
Month to date heating degree days 743 740  
Since 1 July heating degree days 3057 3118  
Cooling Degree Days 0 0  
Month to date cooling degree days 0 0  
Year to date cooling degree days 0 0  
Moisture  
Dew Point 14 °F    
Average Humidity 69    
Maximum Humidity 80    
Minimum Humidity 58    
Precipitation  
Precipitation T in 0.08 in 2.06 in (1996)
Month to date precipitation 1.97 1.41  
Year to date precipitation 1.97 1.41  
Sea Level Pressure  
Sea Level Pressure 29.73 in    
Wind  
Wind Speed 10 mph (SW)    
Max Wind Speed 20 mph    
Max Gust Speed 29 mph    
Visibility 7 miles    
Events Snow    
T = Trace of Precipitation, MM = Missing Value Source: NWS Daily Summary

Daily Weather History Graph

Daily Weather History Graph

Search for Another Location

Airport or City:

Trip Planner

Search our weather history database for the weather conditions in past years. The results will help you decide how hot, cold, wet, or windy it might be!

Date:

Astronomy

Jan. 19, 2014 Rise Set
Actual Time 7:24 AM EST 5:03 PM EST
Civil Twilight 6:54 AM EST 5:33 PM EST
Nautical Twilight 6:20 AM EST 6:07 PM EST
Astronomical Twilight 5:47 AM EST 6:40 PM EST
Moon 8:41 PM EST (1/19) 8:50 AM EST (1/19)
Length of Visible Light 10h 39m
Length of Day
9h 38m
Waning Gibbous, 89% of the Moon is Illuminated
Jan 19
Waning Gibbous
Jan 24
Last Quarter
Jan 30
New
Feb 6
First Quarter
Feb 14
Full

Hourly Weather History & Observations

Time (EST) Temp. Windchill Dew Point Humidity Pressure Visibility Wind Dir Wind Speed Gust Speed Precip Events Conditions
12:33 AM 19.4 °F 11.5 °F 12.2 °F 74% 29.82 in 10.0 mi SW 5.8 mph - N/A   Overcast
12:54 AM 19.9 °F 13.4 °F 12.0 °F 71% 29.84 in 10.0 mi SW 4.6 mph - N/A   Overcast
1:54 AM 19.0 °F 8.2 °F 10.0 °F 68% 29.84 in 10.0 mi SW 9.2 mph - N/A   Overcast
2:54 AM 18.0 °F 6.9 °F 9.0 °F 68% 29.85 in 10.0 mi SW 9.2 mph - N/A   Overcast
3:54 AM 17.1 °F 5.0 °F 9.0 °F 71% 29.85 in 10.0 mi SW 10.4 mph - N/A   Overcast
4:23 AM 15.8 °F 5.1 °F 8.6 °F 73% 29.79 in 4.0 mi SW 8.1 mph - 0.00 in Snow Light Snow
4:29 AM 15.8 °F 6.1 °F 8.6 °F 73% 29.79 in 2.5 mi SW 6.9 mph - 0.00 in Snow Light Snow
4:38 AM 15.8 °F 8.6 °F 10.4 °F 79% 29.78 in 2.5 mi SW 4.6 mph - 0.00 in Snow Light Snow
4:49 AM 15.8 °F 8.6 °F 10.4 °F 79% 29.79 in 4.0 mi SW 4.6 mph - 0.00 in Snow Light Snow
4:54 AM 16.0 °F 6.3 °F 10.0 °F 77% 29.83 in 2.5 mi SW 6.9 mph - 0.00 in Snow Light Snow
5:14 AM 15.8 °F 5.1 °F 10.4 °F 79% 29.78 in 3.0 mi SSW 8.1 mph - 0.00 in Snow Light Snow
5:32 AM 15.8 °F 5.1 °F 10.4 °F 79% 29.77 in 2.5 mi SSW 8.1 mph - 0.00 in Snow Light Snow
5:43 AM 15.8 °F 4.2 °F 10.4 °F 79% 29.77 in 3.0 mi SSW 9.2 mph - 0.00 in Snow Light Snow
5:54 AM 15.1 °F 6.4 °F 10.9 °F 84% 29.81 in 5.0 mi SSW 5.8 mph - 0.00 in Snow Light Snow
6:54 AM 15.1 °F 9.4 °F 10.9 °F 84% 29.78 in 8.0 mi SW 3.5 mph - 0.00 in   Overcast
7:54 AM 16.0 °F 7.4 °F 10.9 °F 81% 29.79 in 7.0 mi WSW 5.8 mph - 0.00 in   Overcast
8:06 AM 15.8 °F 8.6 °F 10.4 °F 79% 29.74 in 2.0 mi SW 4.6 mph - 0.00 in Snow Light Snow
8:15 AM 15.8 °F 5.1 °F 10.4 °F 79% 29.74 in 5.0 mi SW 8.1 mph - 0.00 in Snow Light Snow
8:54 AM 16.0 °F 8.8 °F 10.9 °F 81% 29.78 in 4.0 mi WSW 4.6 mph - 0.00 in   Haze
9:19 AM 17.6 °F 10.7 °F 10.4 °F 73% 29.72 in 2.5 mi West 4.6 mph - 0.00 in Snow Light Snow
9:26 AM 17.6 °F 9.3 °F 10.4 °F 73% 29.73 in 4.0 mi West 5.8 mph - 0.00 in Snow Light Snow
9:54 AM 17.1 °F 8.7 °F 12.0 °F 81% 29.77 in 2.5 mi WSW 5.8 mph - 0.00 in Snow Light Snow
10:51 AM 19.4 °F 8.6 °F 12.2 °F 74% 29.71 in 4.0 mi SW 9.2 mph - 0.00 in Snow Light Snow
10:54 AM 19.0 °F 8.2 °F 12.9 °F 77% 29.75 in 4.0 mi SW 9.2 mph - 0.00 in Snow Light Snow
11:54 AM 21.9 °F 11.7 °F 15.1 °F 75% 29.70 in 8.0 mi WSW 9.2 mph - 0.00 in   Mostly Cloudy
12:16 PM 21.2 °F 8.9 °F 15.8 °F 80% 29.65 in 9.0 mi WSW 12.7 mph 20.7 mph N/A   Mostly Cloudy
12:54 PM 23.0 °F 12.4 °F 15.1 °F 72% 29.67 in 10.0 mi WSW 10.4 mph 19.6 mph N/A   Mostly Cloudy
1:54 PM 25.0 °F 14.2 °F 17.1 °F 72% 29.64 in 9.0 mi SW 11.5 mph 20.7 mph N/A   Overcast
2:54 PM 26.1 °F 16.2 °F 18.0 °F 71% 29.64 in 10.0 mi WSW 10.4 mph 17.3 mph N/A   Overcast
3:54 PM 28.0 °F 16.1 °F 19.0 °F 69% 29.64 in 10.0 mi WSW 16.1 mph 28.8 mph N/A   Overcast
4:54 PM 28.9 °F 18.6 °F 19.0 °F 67% 29.64 in 10.0 mi WSW 12.7 mph - N/A   Overcast
5:05 PM 28.4 °F 18.0 °F 19.4 °F 69% 29.60 in 10.0 mi WSW 12.7 mph - N/A   Mostly Cloudy
5:54 PM 30.0 °F 20.0 °F 19.9 °F 66% 29.64 in 10.0 mi WSW 12.7 mph 20.7 mph N/A   Overcast
6:54 PM 30.9 °F 20.7 °F 19.9 °F 64% 29.63 in 10.0 mi SW 13.8 mph 23.0 mph N/A   Overcast
7:54 PM 28.9 °F 20.4 °F 19.0 °F 67% 29.65 in 10.0 mi WSW 9.2 mph - N/A   Partly Cloudy
8:54 PM 30.0 °F 21.7 °F 19.0 °F 64% 29.65 in 10.0 mi WSW 9.2 mph - N/A   Overcast
9:54 PM 30.9 °F 20.2 °F 18.0 °F 59% 29.65 in 10.0 mi WSW 15.0 mph 21.9 mph N/A   Mostly Cloudy
10:54 PM 30.0 °F 20.5 °F 18.0 °F 61% 29.65 in 10.0 mi WSW 11.5 mph 19.6 mph N/A   Mostly Cloudy
11:54 PM 28.9 °F 19.2 °F 18.0 °F 64% 29.64 in 10.0 mi WSW 11.5 mph - N/A   Clear